Macomb, IL

1:22 PM CDT on June 25, 2017 (GMT -0500)
Macomb Municipal

Weather History for KMQB - July, 2013

Change the Weather History Date:

Tuesday, July 9, 2013

  Actual Average (KBRL) Record (KBRL)
Temperature  
Mean Temperature 84 °F -  
Max Temperature 91 °F 86 °F 104 °F (1936)
Min Temperature 77 °F 70 °F 51 °F (1953)
Cooling Degree Days 19    
Growing Degree Days 34 (Base 50)    
Moisture  
Dew Point 75 °F    
Average Humidity 74    
Maximum Humidity 90    
Minimum Humidity 56    
Precipitation  
Precipitation 0.00 in - - ()
Sea Level Pressure  
Sea Level Pressure 29.99 in    
Wind  
Wind Speed 5 mph (SSW)    
Max Wind Speed 10 mph    
Max Gust Speed -    
Visibility 10 miles    
Events Rain    
Averages and records for this station are not official NWS values.
T = Trace of Precipitation, MM = Missing Value Source: NWS Daily Summary

Daily Weather History Graph

Daily Weather History Graph

Search for Another Location

Airport or City:

Trip Planner

Search our weather history database for the weather conditions in past years. The results will help you decide how hot, cold, wet, or windy it might be!

Date:

Astronomy

Jul. 09, 2013 Rise Set
Actual Time 5:40 AM CDT 8:34 PM CDT
Civil Twilight 5:08 AM CDT 9:07 PM CDT
Nautical Twilight 4:26 AM CDT 9:48 PM CDT
Astronomical Twilight 3:39 AM CDT 10:36 PM CDT
Moon 7:05 AM CDT (7/9) 9:11 PM CDT (7/9)
Length of Visible Light 15h 59m
Length of Day
14h 54m
New Moon, 2% of the Moon is Illuminated
Jul 9
New Moon
Jul 15
First Quarter
Jul 22
Full
Jul 29
Last Quarter
Aug 6
New

Hourly Weather History & Observations

Time (CDT) Temp. Heat Index Dew Point Humidity Pressure Visibility Wind Dir Wind Speed Gust Speed Precip Events Conditions
12:15 AM 79.9 °F - 75.4 °F 86% 30.03 in 10.0 mi SSW 4.6 mph - N/A   Scattered Clouds
12:55 AM 80.1 °F 84.8 °F 74.5 °F 83% 30.03 in 10.0 mi SSW 4.6 mph - N/A   Scattered Clouds
1:15 AM 79.9 °F - 74.3 °F 83% 30.03 in 10.0 mi SSW 3.5 mph - N/A   Clear
1:35 AM 80.1 °F 84.5 °F 73.6 °F 81% 30.02 in 10.0 mi SSW 5.8 mph - N/A   Scattered Clouds
1:55 AM 80.2 °F 84.6 °F 73.2 °F 79% 30.02 in 10.0 mi SSW 3.5 mph - N/A   Clear
2:15 AM 79.7 °F - 73.0 °F 80% 30.02 in 10.0 mi SSW 4.6 mph - N/A   Mostly Cloudy
2:35 AM 79.7 °F - 72.7 °F 79% 30.02 in 10.0 mi SSW 3.5 mph - N/A   Mostly Cloudy
2:55 AM 79.3 °F - 72.9 °F 80% 30.03 in 10.0 mi Calm Calm - N/A   Scattered Clouds
3:15 AM 78.3 °F - 73.4 °F 85% 30.03 in 10.0 mi SSW 3.5 mph - N/A   Mostly Cloudy
3:35 AM 77.9 °F - 73.9 °F 88% 30.03 in 10.0 mi South 3.5 mph - N/A   Overcast
3:55 AM 77.5 °F - 74.3 °F 90% 30.03 in 10.0 mi South 3.5 mph - N/A   Overcast
4:15 AM 77.5 °F - 74.3 °F 90% 30.03 in 10.0 mi Calm Calm - N/A   Overcast
4:35 AM 77.9 °F - 74.1 °F 88% 30.02 in 10.0 mi South 3.5 mph - N/A Rain Light Rain
4:55 AM 77.9 °F - 73.6 °F 86% 30.02 in 10.0 mi South 4.6 mph - N/A   Overcast
5:15 AM 78.3 °F - 73.4 °F 85% 30.02 in 10.0 mi South 4.6 mph - N/A   Overcast
5:35 AM 79.0 °F - 73.0 °F 82% 30.02 in 10.0 mi South 5.8 mph - N/A   Overcast
5:55 AM 79.0 °F - 72.7 °F 81% 30.03 in 10.0 mi SW 3.5 mph - N/A   Mostly Cloudy
6:15 AM 78.1 °F - 73.0 °F 84% 30.02 in 10.0 mi SSW 3.5 mph - N/A   Mostly Cloudy
6:35 AM 77.9 °F - 73.4 °F 86% 30.03 in 10.0 mi South 3.5 mph - N/A   Overcast
6:55 AM 77.9 °F - 73.6 °F 86% 30.03 in 10.0 mi South 3.5 mph - N/A   Overcast
7:15 AM 77.9 °F - 73.9 °F 88% 30.03 in 10.0 mi South 3.5 mph - N/A   Mostly Cloudy
7:35 AM 78.3 °F - 74.1 °F 87% 30.02 in 10.0 mi SSW 3.5 mph - N/A   Scattered Clouds
7:55 AM 79.3 °F - 73.4 °F 82% 30.03 in 10.0 mi SW 5.8 mph - N/A   Scattered Clouds
8:15 AM 79.9 °F - 72.5 °F 78% 30.03 in 10.0 mi SSW 6.9 mph - N/A   Mostly Cloudy
8:35 AM 81.3 °F 86.1 °F 72.9 °F 75% 30.04 in 10.0 mi SW 8.1 mph - N/A   Mostly Cloudy
8:55 AM 81.5 °F 86.7 °F 73.4 °F 76% 30.04 in 10.0 mi SW 6.9 mph - N/A   Scattered Clouds
9:15 AM 82.4 °F 87.9 °F 73.0 °F 73% 30.03 in 10.0 mi SSW 8.1 mph - N/A   Scattered Clouds
9:35 AM 83.8 °F 90.8 °F 73.8 °F 72% 30.03 in 10.0 mi SW 9.2 mph - N/A   Clear
9:55 AM 85.1 °F 92.2 °F 73.6 °F 68% 30.03 in 10.0 mi SW 6.9 mph - N/A   Clear
10:15 AM 86.4 °F 94.2 °F 73.9 °F 66% 30.02 in 10.0 mi SW 9.2 mph - N/A   Clear
10:35 AM 87.8 °F 96.6 °F 74.1 °F 64% 30.02 in 10.0 mi SW 9.2 mph - N/A   Clear
10:55 AM 86.9 °F 95.4 °F 74.3 °F 66% 30.02 in 10.0 mi SW 5.8 mph - N/A   Clear
11:15 AM 88.0 °F 97.5 °F 75.0 °F 65% 30.02 in 10.0 mi WSW 10.4 mph - N/A   Clear
11:35 AM 88.3 °F 98.4 °F 75.2 °F 65% 30.02 in 10.0 mi SW 6.9 mph - N/A   Clear
11:55 AM 87.8 °F 97.1 °F 74.8 °F 65% 30.02 in 10.0 mi WSW 9.2 mph - N/A   Clear
12:15 PM 86.9 °F 96.4 °F 75.0 °F 68% 30.02 in 10.0 mi SW 6.9 mph - N/A   Scattered Clouds
12:32 PM 87.8 °F 97.6 °F 75.2 °F 66% 30.02 in 10.0 mi SW 4.6 mph - N/A   Scattered Clouds
12:35 PM 86.9 °F 97.3 °F 76.1 °F 70% 30.02 in 10.0 mi WSW 5.8 mph - N/A   Scattered Clouds
12:51 PM 87.8 °F 97.6 °F 75.2 °F 66% 30.02 in 10.0 mi WSW 6.9 mph - N/A   Scattered Clouds
12:55 PM 86.4 °F 96.9 °F 76.3 °F 72% 30.03 in 10.0 mi West 6.9 mph - N/A   Scattered Clouds
1:12 PM 86.0 °F 95.1 °F 75.2 °F 70% 30.02 in 10.0 mi WSW 6.9 mph - N/A   Scattered Clouds
1:15 PM 86.0 °F 96.0 °F 75.9 °F 72% 30.02 in 10.0 mi WSW 5.8 mph - N/A   Scattered Clouds
1:32 PM 86.0 °F 95.1 °F 75.2 °F 70% 30.01 in 10.0 mi SW 8.1 mph - N/A   Scattered Clouds
1:35 PM 85.6 °F 94.6 °F 75.4 °F 71% 30.01 in 10.0 mi SW 8.1 mph - N/A   Scattered Clouds
1:55 PM 86.0 °F 95.1 °F 75.2 °F 70% 30.00 in 10.0 mi SW 8.1 mph - N/A   Scattered Clouds
2:15 PM 87.4 °F 96.7 °F 75.0 °F 66% 29.98 in 10.0 mi SSW 9.2 mph - N/A   Scattered Clouds
2:35 PM 86.9 °F 95.9 °F 74.7 °F 67% 29.97 in 10.0 mi SSW 6.9 mph - N/A   Clear
2:55 PM 86.9 °F 96.4 °F 75.2 °F 68% 29.97 in 10.0 mi SSW 6.9 mph - N/A   Clear
3:15 PM 87.3 °F 96.8 °F 75.0 °F 67% 29.97 in 10.0 mi SSW 4.6 mph - N/A   Scattered Clouds
3:35 PM 88.3 °F 98.4 °F 75.2 °F 65% 29.97 in 10.0 mi SW 8.1 mph - N/A   Scattered Clouds
3:55 PM 88.9 °F 100.3 °F 76.1 °F 66% 29.97 in 10.0 mi SW 5.8 mph - N/A   Scattered Clouds
4:15 PM 89.6 °F 101.6 °F 76.3 °F 65% 29.96 in 10.0 mi SW 8.1 mph - N/A   Scattered Clouds
4:35 PM 90.5 °F 103.4 °F 77.0 °F 64% 29.95 in 10.0 mi SSW 8.1 mph - N/A   Scattered Clouds
4:55 PM 90.1 °F 101.8 °F 75.9 °F 63% 29.95 in 10.0 mi SW 9.2 mph - N/A   Scattered Clouds
5:15 PM 91.4 °F 100.7 °F 73.9 °F 56% 29.95 in 10.0 mi SW 10.4 mph - N/A   Scattered Clouds
5:35 PM 91.4 °F 101.9 °F 74.8 °F 58% 29.94 in 10.0 mi SW 6.9 mph - N/A   Clear
5:55 PM 90.5 °F 101.5 °F 75.4 °F 61% 29.93 in 10.0 mi SW 8.1 mph - N/A   Scattered Clouds
6:15 PM 91.0 °F 101.6 °F 75.0 °F 59% 29.93 in 10.0 mi SSW 9.2 mph - N/A   Scattered Clouds
6:35 PM 90.7 °F 101.9 °F 75.4 °F 61% 29.92 in 10.0 mi SSW 5.8 mph - N/A   Clear
6:55 PM 90.3 °F 101.0 °F 75.2 °F 61% 29.92 in 10.0 mi SSW 6.9 mph - N/A   Clear
7:15 PM 89.8 °F 100.3 °F 75.4 °F 62% 29.92 in 10.0 mi SSW 6.9 mph - N/A   Clear
7:35 PM 88.9 °F 98.6 °F 74.8 °F 63% 29.92 in 10.0 mi SSW 6.9 mph - N/A   Clear
7:55 PM 87.3 °F 97.2 °F 75.6 °F 68% 29.91 in 10.0 mi South 4.6 mph - N/A   Clear
8:15 PM 85.5 °F 95.4 °F 76.3 °F 74% 29.91 in 10.0 mi South 4.6 mph - N/A   Clear
8:35 PM 84.7 °F 94.0 °F 76.1 °F 75% 29.91 in 10.0 mi South 4.6 mph - N/A   Clear
8:55 PM 83.1 °F 91.3 °F 76.1 °F 79% 29.92 in 10.0 mi South 5.8 mph - N/A   Clear
9:15 PM 82.4 °F 90.1 °F 76.1 °F 81% 29.92 in 10.0 mi South 4.6 mph - N/A   Clear
9:35 PM 82.9 °F 90.2 °F 75.2 °F 77% 29.92 in 10.0 mi South 5.8 mph - N/A   Clear
9:55 PM 83.3 °F 90.8 °F 75.2 °F 76% 29.93 in 10.0 mi South 5.8 mph - N/A   Clear
10:15 PM 82.9 °F 90.5 °F 75.4 °F 78% 29.93 in 10.0 mi South 4.6 mph - N/A   Clear
10:35 PM 82.2 °F 89.3 °F 75.6 °F 80% 29.93 in 10.0 mi South 5.8 mph - N/A   Clear
10:55 PM 82.8 °F 90.1 °F 75.4 °F 78% 29.93 in 10.0 mi SSW 5.8 mph - N/A   Clear
11:15 PM 82.8 °F 90.1 °F 75.2 °F 78% 29.93 in 10.0 mi SSW 6.9 mph - N/A   Clear
11:35 PM 83.3 °F 90.8 °F 75.0 °F 76% 29.93 in 10.0 mi SSW 5.8 mph - N/A   Clear
11:55 PM 82.9 °F 89.9 °F 74.7 °F 76% 29.93 in 10.0 mi SSW 6.9 mph - N/A   Scattered Clouds